Weather History for Montpelier, VT

Change the Weather History Date:

Thursday, April 14, 2011

  Actual Average Record
Temperature  
Mean Temperature 40 °F 42 °F  
Max Temperature 46 °F 53 °F 81 °F (1968)
Min Temperature 32 °F 31 °F 11 °F (1973)
Degree Days  
Heating Degree Days 25 23  
Month to date heating degree days 366  
Since 1 July heating degree days 7391  
Cooling Degree Days 0 0  
Month to date cooling degree days 0  
Year to date cooling degree days 0  
Moisture  
Dew Point 35 °F    
Average Humidity 87    
Maximum Humidity 100    
Minimum Humidity 54    
Precipitation  
Precipitation 0.00 in 0.09 in 0.50 in (1952)
Month to date precipitation 1.21  
Year to date precipitation 8.09  
Sea Level Pressure  
Sea Level Pressure 29.99 in    
Wind  
Wind Speed 5 mph (NW)    
Max Wind Speed 16 mph    
Max Gust Speed 24 mph    
Visibility 8 miles    
Events Rain    
T = Trace of Precipitation, MM = Missing Value Source: NWS Daily Summary

Daily Weather History Graph

Daily Weather History Graph

Search for Another Location

Airport:

Trip Planner

Search our weather history database for the weather conditions in past years. The results will help you decide how hot, cold, wet, or windy it might be!

Date:

Astronomy

Apr. 14, 2011 Rise Set
Actual Time 6:08 AM EDT 7:32 PM EDT
Civil Twilight 5:38 AM EDT 8:03 PM EDT
Nautical Twilight 5:02 AM EDT 8:39 PM EDT
Astronomical Twilight 4:24 AM EDT 9:18 PM EDT
Moon 3:36 PM EDT (4/14) 3:52 AM EDT (4/14)
Length of Visible Light 14h 24m
Length of Day
13h 24m
Waxing Gibbous, 83% of the Moon is Illuminated
Apr 14
Waxing Gibbous
Apr 17
Full
Apr 24
Last Quarter
May 3
New
May 10
First Quarter

Hourly Weather History & Observations

Time (EDT) Temp. Windchill Dew Point Humidity Pressure Visibility Wind Dir Wind Speed Gust Speed Precip Events Conditions
12:01 AM 39.2 °F - 37.4 °F 93% 29.87 in 10.0 mi Calm Calm - N/A   Overcast
12:09 AM 39.2 °F 37.0 °F 37.4 °F 93% 29.87 in 10.0 mi SSE 3.5 mph - N/A   Overcast
12:33 AM 37.4 °F - 37.4 °F 100% 29.87 in 1.8 mi Calm Calm - N/A   Overcast
12:40 AM 37.4 °F - 37.4 °F 100% 29.87 in 1.0 mi Calm Calm - N/A   Overcast
12:48 AM 37.4 °F - 37.4 °F 100% 29.87 in 1.5 mi Calm Calm - N/A   Overcast
12:51 AM 37.9 °F - 37.0 °F 97% 29.90 in 2.0 mi Calm Calm - N/A   Overcast
12:59 AM 37.4 °F - 37.4 °F 100% 29.87 in 5.0 mi Calm Calm - N/A   Overcast
1:24 AM 37.4 °F - 37.4 °F 100% 29.86 in 1.8 mi Calm Calm - N/A   Overcast
1:28 AM 37.4 °F - 37.4 °F 100% 29.86 in 1.0 mi Calm Calm - N/A   Overcast
1:35 AM 37.4 °F - 37.4 °F 100% 29.86 in 1.5 mi Calm Calm - N/A   Overcast
1:39 AM 37.4 °F - 37.4 °F 100% 29.86 in 3.0 mi Calm Calm - N/A   Overcast
1:51 AM 37.9 °F - 37.0 °F 97% 29.89 in 3.0 mi Calm Calm - N/A   Overcast
2:01 AM 37.4 °F - 37.4 °F 100% 29.86 in 9.0 mi Calm Calm - N/A   Overcast
2:27 AM 39.2 °F - 37.4 °F 93% 29.86 in 10.0 mi Calm Calm - N/A   Overcast
2:51 AM 37.9 °F - 37.0 °F 97% 29.90 in 9.0 mi Calm Calm - N/A   Overcast
3:06 AM 37.4 °F - 37.4 °F 100% 29.86 in 10.0 mi Calm Calm - 0.00 in Rain Light Rain
3:25 AM 37.4 °F - 37.4 °F 100% 29.87 in 6.0 mi Calm Calm - 0.00 in   Overcast
3:37 AM 37.4 °F 33.8 °F 37.4 °F 100% 29.87 in 2.5 mi WNW 4.6 mph - 0.00 in   Overcast
3:51 AM 39.0 °F 32.3 °F 37.9 °F 96% 29.90 in 10.0 mi WNW 10.4 mph - 0.00 in   Overcast
3:57 AM 39.2 °F 35.0 °F 37.4 °F 93% 29.87 in 10.0 mi WNW 5.8 mph - N/A   Overcast
4:11 AM 39.2 °F 33.6 °F 37.4 °F 93% 29.87 in 10.0 mi WNW 8.1 mph - N/A   Overcast
4:18 AM 39.2 °F 33.0 °F 37.4 °F 93% 29.87 in 10.0 mi WNW 9.2 mph - N/A   Overcast
4:51 AM 37.9 °F 31.5 °F 36.0 °F 93% 29.91 in 10.0 mi NW 9.2 mph - N/A   Overcast
5:04 AM 37.4 °F 30.3 °F 35.6 °F 93% 29.89 in 10.0 mi NW 10.4 mph - N/A   Overcast
5:29 AM 37.4 °F 30.8 °F 35.6 °F 93% 29.90 in 8.0 mi WNW 9.2 mph - N/A   Overcast
5:34 AM 37.4 °F 30.3 °F 35.6 °F 93% 29.90 in 9.0 mi WNW 10.4 mph - N/A   Overcast
5:51 AM 37.0 °F 30.4 °F 36.0 °F 96% 29.94 in 6.0 mi NW 9.2 mph - N/A   Overcast
6:03 AM 37.4 °F 31.4 °F 35.6 °F 93% 29.91 in 5.0 mi NW 8.1 mph - N/A   Overcast
6:19 AM 37.4 °F 29.3 °F 35.6 °F 93% 29.92 in 8.0 mi NW 12.7 mph 18.4 mph N/A   Overcast
6:51 AM 37.0 °F 29.3 °F 36.0 °F 96% 29.98 in 4.0 mi NW 11.5 mph - N/A   Overcast
7:51 AM 37.0 °F 29.3 °F 36.0 °F 96% 30.00 in 10.0 mi NW 11.5 mph 21.9 mph N/A   Overcast
8:14 AM 37.4 °F 29.3 °F 35.6 °F 93% 29.97 in 10.0 mi NW 12.7 mph - N/A   Overcast
8:16 AM 37.4 °F 28.2 °F 35.6 °F 93% 29.97 in 10.0 mi NW 16.1 mph - N/A   Overcast
8:24 AM 37.4 °F 28.5 °F 35.6 °F 93% 29.97 in 10.0 mi NW 15.0 mph 20.7 mph N/A   Overcast
8:51 AM 37.0 °F 33.3 °F 36.0 °F 96% 30.02 in 10.0 mi NW 4.6 mph - N/A   Mostly Cloudy
9:26 AM 39.2 °F 32.5 °F 35.6 °F 87% 29.99 in 10.0 mi WNW 10.4 mph - N/A   Overcast
9:42 AM 39.2 °F 32.5 °F 35.6 °F 87% 30.00 in 10.0 mi NW 10.4 mph - N/A   Overcast
9:49 AM 39.2 °F 33.0 °F 35.6 °F 87% 30.00 in 10.0 mi WNW 9.2 mph - N/A   Overcast
9:51 AM 39.9 °F 33.4 °F 36.0 °F 86% 30.04 in 10.0 mi NW 10.4 mph - N/A   Overcast
10:51 AM 42.1 °F 35.7 °F 37.0 °F 82% 30.06 in 10.0 mi WNW 11.5 mph - N/A   Mostly Cloudy
11:51 AM 43.0 °F 37.7 °F 36.0 °F 76% 30.07 in 10.0 mi NW 9.2 mph - N/A   Overcast
12:51 PM 43.0 °F 35.4 °F 35.1 °F 74% 30.09 in 10.0 mi NNW 16.1 mph 21.9 mph N/A   Overcast
1:46 PM 44.6 °F 38.8 °F 35.6 °F 71% 30.07 in 10.0 mi NW 11.5 mph 24.2 mph N/A   Overcast
1:51 PM 45.0 °F 40.1 °F 35.1 °F 68% 30.11 in 10.0 mi NNW 9.2 mph 20.7 mph N/A   Overcast
2:06 PM 44.6 °F 39.2 °F 33.8 °F 66% 30.08 in 10.0 mi NW 10.4 mph 18.4 mph N/A   Overcast
2:31 PM 44.6 °F 38.4 °F 33.8 °F 66% 30.09 in 10.0 mi NW 12.7 mph 19.6 mph N/A   Overcast
2:51 PM 44.1 °F 39.0 °F 34.0 °F 68% 30.12 in 10.0 mi NW 9.2 mph 19.6 mph N/A   Overcast
3:51 PM 43.0 °F 37.7 °F 34.0 °F 71% 30.15 in 10.0 mi NNW 9.2 mph - N/A   Overcast
4:51 PM 43.0 °F 37.7 °F 34.0 °F 71% 30.17 in 10.0 mi NW 9.2 mph - N/A   Overcast
5:37 PM 42.8 °F 37.5 °F 33.8 °F 70% 30.15 in 10.0 mi WNW 9.2 mph - N/A   Overcast
5:51 PM 43.0 °F 37.2 °F 34.0 °F 71% 30.19 in 10.0 mi WNW 10.4 mph - N/A   Overcast
6:51 PM 42.1 °F 37.1 °F 32.0 °F 67% 30.21 in 10.0 mi WNW 8.1 mph - N/A   Overcast
7:51 PM 42.1 °F 36.1 °F 30.9 °F 65% 30.24 in 10.0 mi NNW 10.4 mph - N/A   Overcast
8:51 PM 39.0 °F 33.4 °F 28.9 °F 67% 30.29 in 10.0 mi North 8.1 mph - N/A   Overcast
10:51 PM 35.1 °F 27.4 °F 19.9 °F 54% 30.34 in 10.0 mi North 10.4 mph 20.7 mph N/A   Scattered Clouds
11:51 PM 32.0 °F 27.5 °F 19.9 °F 61% 30.35 in 10.0 mi NNW 4.6 mph - N/A   Clear